Location: Beddau
(51.5575°N, 3.3561°W)
Time: 00:47:06
(UTC+00:00)

Okean O Rocket - Pass Details

Date: 03 March 2021
Orbit: 623 x 643 km, 98.2° (Epoch: 12 April)

Event Time Altitude Azimuth Distance (km) Brightness Sun altitude
Rises 18:46:07 0° 198° (SSW) 2,896 5.2 -8.3°
Reaches altitude 10° 18:48:39 10° 212° (SSW) 1,994 4.6 -8.7°
Maximum altitude 18:52:11 24° 267° (W) 1,300 4.3 -9.3°
Drops below altitude 10° 18:55:45 10° 322° (NW) 2,009 4.8 -9.8°
Sets 18:58:18 0° 336° (NNW) 2,923 5.4 -10.2°
